Regional Weather Roundup
Issued by NWS

Home | Current Version | Previous Version | Text Only | Print | Product List | Glossary Off
Versions: 1 2 3 4 5 6 7 8 9 10 11 12 13 14 15 16 17 18 19 20 21 22 23 24 25 26 27 28 29 30 31 32 33 34 35 36 37 38 39 40 41 42 43 44 45 46 47 48 49 50

000
ASUS43 KDMX 240001
RWRIA

WEATHER ROUNDUP FOR IOWA
NATIONAL WEATHER SERVICE DES MOINES IA
700 PM CDT MON OCT 23 2017

NOTE: "FAIR" INDICATES FEW OR NO CLOUDS BELOW 12,000 FEET WITH NO
SIGNIFICANT WEATHER AND/OR OBSTRUCTIONS TO VISIBILITY.

* - THESE STATIONS ARE NOT NWS STATIONS...THUS NOT UNDER NWS
QUALITY CONTROL.  THEY ALSO DO NOT REPORT WEATHER SUCH
AS PRECIPITATION OR FOG.

IAZ001>003-012>014-020>022-031>034-043>046-240100-
   NORTHWEST IOWA

CITY           SKY/WX    TMP DP  RH WIND       PRES   REMARKS
CARROLL *      CLOUDY    50  34  53 NW15G23   29.98S
CHEROKEE *     CLOUDY    50  30  46 NW9       30.00F
DENISON *      MOCLDY    50  32  50 NW14      30.03S
LE MARS *      CLOUDY    54  30  40 NW13      30.04R
ORANGE CITY *  MOCLDY    52  30  43 NW13G18   30.02S
SHELDON *      CLOUDY    50  27  40 NW13G18   29.98F
SIOUX CITY     MOCLDY    52  32  46 NW20      30.05R
6HR MIN TEMP:  52; 6HR MAX TEMP:  61; 6HR PCP: TRACE;

SPENCER        PTCLDY    49  31  49 NW15      29.97S
6HR MIN TEMP:  49; 6HR MAX TEMP:  60; 6HR PCP: TRACE;

STORM LAKE *   PTCLDY    48  30  49 NW15G21   29.98F
$$

IAZ055>058-069>071-079>083-090>094-240100-
   SOUTHWEST IOWA

CITY           SKY/WX    TMP DP  RH WIND       PRES   REMARKS
ATLANTIC *     CLOUDY    52  36  54 NW16G26   30.02R
AUDUBON *      MOCLDY    50  34  53 NW13G21   30.01S
CLARINDA *       N/A     55  32  41 NW21G35   30.05R
COUNCIL BLFS * PTCLDY    54  30  40 NW16G24   30.05R
CRESTON *      CLOUDY    54  36  50 NW20G29   29.99R
HARLAN  *      PTCLDY    52  32  46 NW14G26   30.06R
LAMONI         CLOUDY    54  35  48 NW21G30   29.95R
6HR MIN TEMP:  54; 6HR MAX TEMP:  63; 6HR PCP: TRACE;

RED OAK *      PTCLDY    54  32  43 N17G24    30.04R
SHENANDOAH *   PTCLDY    55  34  44 NW13G21   30.06R
$$

IAZ047>049-059>061-072>074-084-240100-
   CENTRAL IOWA

CITY           SKY/WX    TMP DP  RH WIND       PRES   REMARKS
AMES           CLOUDY    51  38  60 NW28G39   29.93R
6HR MIN TEMP:  51; 6HR MAX TEMP:  64;

ANKENY *       CLOUDY    52  39  62 NW17G31   29.94R
BOONE *        CLOUDY    50  36  57 NW20G31   29.93R
CHARITON *     CLOUDY    54  36  50 NW25G39   29.91R
DES MOINES     MOCLDY    53  36  52 NW16G32   29.92R
6HR MIN TEMP:  53; 6HR MAX TEMP:  66; 6HR PCP: TRACE;

GRINNELL*      MOCLDY    51  38  62 NW30G36   29.88R
KNOXVILLE *    CLOUDY    54  36  50 NW21G33   29.89R
MARSHALLTOWN   LGT RAIN  50  40  68 NW23G30   29.88R
6HR MIN TEMP:  50; 6HR MAX TEMP:  63; 6HR PCP:  0.01;

NEWTON *       CLOUDY    52  39  62 NW21G30   29.89R
PELLA *        MOCLDY    54  37  52 NW21G28   29.89R
PERRY *        CLOUDY    51  32  48 NW13G21   29.97R
$$

IAZ004>006-015-016-023>025-035-036-240100-
   NORTH CENTRAL IOWA

CITY           SKY/WX    TMP DP  RH WIND       PRES   REMARKS
ALGONA *       CLOUDY    50  34  53 NW10G18   29.92F
CLARION *      CLOUDY    48  37  66 NW18G28   29.91R
ESTHERVILLE    CLOUDY    49  31  49 NW14G21   29.93S
6HR MIN TEMP:  47; 6HR MAX TEMP:  58;

FORT DODGE *   CLOUDY    49  35  58 NW9G16    29.94S
MASON CITY     CLOUDY    49  32  52 NW28G33   29.88S
6HR MIN TEMP:  48; 6HR MAX TEMP:  60; 6HR PCP: TRACE;

FOREST CITY *  CLOUDY    48  32  53 NW18G31   29.88S
WEBSTER CITY * CLOUDY    50  36  57 NW20G29   29.90F
IOWA FALLS *   CLOUDY    49  39  67 NW20G29   29.90R
$$

IAZ007>011-017>019-026>030-037>042-050>054-066-240100-
   NORTHEAST IOWA

CITY           SKY/WX    TMP DP  RH WIND       PRES   REMARKS
CEDAR RAPIDS   PTCLDY    52  37  56 NW20G32   29.79R
6HR MIN TEMP:  52; 6HR MAX TEMP:  59; 6HR PCP:  0.01;

CHARLES CITY * CLOUDY    48  41  76 NW16G23   29.83F
DECORAH *      CLOUDY    48  39  71 W9G21     29.76S
DUBUQUE        CLOUDY    50  46  86 W12       29.74S
6HR MIN TEMP:  49; 6HR MAX TEMP:  60; 6HR PCP:  0.03;

MONTICELLO *   PTCLDY    54  39  58 NW21G26   29.75S
OELWEIN *      CLOUDY    50  41  71 NW26G35   29.80R
WATERLOO       CLOUDY    49  40  71 W15       29.83R
6HR MIN TEMP:  49; 6HR MAX TEMP:  60; 6HR PCP:  0.03;

$$

IAZ064-065-067-068-078-240100-
   EAST CENTRAL IOWA

CITY           SKY/WX    TMP DP  RH WIND       PRES   REMARKS
DAVENPORT      CLOUDY    52  47  83 W9        29.77F
6HR MIN TEMP:  52; 6HR MAX TEMP:  61; 6HR PCP: TRACE;

IOWA CITY      MOCLDY    57  40  52 NW14G23   29.80R
6HR MIN TEMP:  57; 6HR MAX TEMP:  61; 6HR PCP: TRACE;

MUSCATINE *    CLOUDY    54  45  71 W6        29.78S
QUAD CITIES    PTCLDY    54  45  71 W8        29.75F
6HR MIN TEMP:  54; 6HR MAX TEMP:  62; 6HR PCP: TRACE;

$$

IAZ062-063-075>077-085>089-095>099-240100-
   SOUTHEAST IOWA

CITY           SKY/WX    TMP DP  RH WIND       PRES   REMARKS
BURLINGTON     PTCLDY    53  45  74 W5        29.78F
6HR MIN TEMP:  53; 6HR MAX TEMP:  63; 6HR PCP: TRACE;

FAIRFIELD *    MOCLDY    57  37  47 NW17G24   29.82R
FORT MADISON * PTCLDY    54  46  76 CALM      29.80S
KEOKUK *       PTCLDY    54  45  71 W7        29.80S
OSKALOOSA *      N/A     53  38  58 NW22G32   29.86R
OTTUMWA        PTCLDY    54  37  52 NW20G26   29.85R
6HR MIN TEMP:  54; 6HR MAX TEMP:  61; 6HR PCP: TRACE;

WASHINGTON *   MOCLDY    55  41  58 NW21G29   29.81R
$$

ABBREVIATIONS USED IN REMARKS
   TC - TEMPERATURES IN CELSIUS
  WCI - WIND CHILL INDEX
   HX - HEAT INDEX
  VSB - VISIBILITY
$$





USA.gov is the U.S. government's official web portal to all federal, state and local government web resources and services.